Time,TemperatureF,DewpointF,PressureIn,WindDirection,WindDirectionDegrees,WindSpeedMPH,WindSpeedGustMPH,Humidity,HourlyPrecipIn,Conditions,Clouds,dailyrainin,SoftwareType,DateUTC
2013-01-25 00:02:00,-2.3,-5.5,31.45,WNW,297,0.0,0.0,86,0.00,CLR,CLR,0.00,WeatherDisplay:10.37,2013-01-25 05:02:00,
2013-01-25 00:07:00,-2.1,-5.3,31.45,WNW,297,0.0,0.0,86,0.00,CLR,CLR,0.00,WeatherDisplay:10.37,2013-01-25 05:07:00,
2013-01-25 00:12:00,-2.1,-5.3,31.45,WNW,297,0.0,0.0,86,0.00,CLR,CLR,0.00,WeatherDisplay:10.37,2013-01-25 05:12:00,
2013-01-25 00:17:00,-1.9,-5.1,31.45,WNW,297,0.0,0.0,86,0.00,CLR,CLR,0.00,WeatherDisplay:10.37,2013-01-25 05:17:00,
2013-01-25 00:22:00,-1.6,-4.8,31.44,WNW,297,0.0,0.0,86,0.00,CLR,CLR,0.00,WeatherDisplay:10.37,2013-01-25 05:22:00,
2013-01-25 00:27:00,-1.5,-4.7,31.44,WNW,297,0.0,0.0,86,0.00,CLR,CLR,0.00,WeatherDisplay:10.37,2013-01-25 05:27:00,
2013-01-25 00:32:00,-1.5,-4.7,31.43,WNW,297,0.0,0.0,86,0.00,CLR,CLR,0.00,WeatherDisplay:10.37,2013-01-25 05:32:00,
2013-01-25 00:37:00,-1.6,-4.8,31.43,WNW,297,0.0,0.0,86,0.00,CLR,CLR,0.00,WeatherDisplay:10.37,2013-01-25 05:37:00,
2013-01-25 00:42:00,-1.8,-5.2,31.43,WNW,297,0.0,0.0,85,0.00,CLR,CLR,0.00,WeatherDisplay:10.37,2013-01-25 05:42:00,
2013-01-25 00:47:00,-1.4,-4.5,31.43,WNW,297,0.0,0.0,86,0.00,CLR,CLR,0.00,WeatherDisplay:10.37,2013-01-25 05:47:00,
2013-01-25 00:52:00,-0.8,-3.7,31.43,WNW,297,0.0,0.0,87,0.00,CLR,CLR,0.00,WeatherDisplay:10.37,2013-01-25 05:52:00,
2013-01-25 00:57:00,-0.2,-3.2,31.43,WNW,297,0.0,0.0,87,0.00,CLR,CLR,0.00,WeatherDisplay:10.37,2013-01-25 05:57:00,
2013-01-25 01:02:00,0.2,-2.8,31.42,WNW,297,0.0,0.0,87,0.00,CLR,CLR,0.00,WeatherDisplay:10.37,2013-01-25 06:02:00,
2013-01-25 01:07:00,0.4,-2.5,31.43,WNW,297,0.0,0.0,87,0.00,CLR,CLR,0.00,WeatherDisplay:10.37,2013-01-25 06:07:00,
2013-01-25 01:12:00,0.6,-2.3,31.42,WNW,297,0.0,0.0,87,0.00,CLR,CLR,0.00,WeatherDisplay:10.37,2013-01-25 06:12:00,
2013-01-25 01:17:00,1.7,-1.5,31.42,NW,323,0.0,0.0,86,0.00,CLR,CLR,0.00,WeatherDisplay:10.37,2013-01-25 06:17:00,
2013-01-25 01:22:00,1.8,-1.4,31.42,North,358,0.0,0.0,86,0.00,CLR,CLR,0.00,WeatherDisplay:10.37,2013-01-25 06:22:00,
2013-01-25 01:27:00,1.8,-1.4,31.42,North,1,0.0,0.0,86,0.00,CLR,CLR,0.00,WeatherDisplay:10.37,2013-01-25 06:27:00,
2013-01-25 01:32:00,1.8,-1.4,31.42,North,0,0.0,0.0,86,0.00,CLR,CLR,0.00,WeatherDisplay:10.37,2013-01-25 06:32:00,
2013-01-25 01:37:00,2.0,-1.2,31.42,North,1,0.0,0.0,86,0.00,CLR,CLR,0.00,WeatherDisplay:10.37,2013-01-25 06:37:00,
2013-01-25 01:42:00,2.2,-1.0,31.42,North,2,0.0,0.0,86,0.00,CLR,CLR,0.00,WeatherDisplay:10.37,2013-01-25 06:42:00,
2013-01-25 01:47:00,2.3,-1.0,31.42,North,1,0.0,0.0,86,0.00,CLR,CLR,0.00,WeatherDisplay:10.37,2013-01-25 06:47:00,
2013-01-25 01:52:00,2.3,-0.9,31.42,North,1,0.0,0.0,86,0.00,CLR,CLR,0.00,WeatherDisplay:10.37,2013-01-25 06:52:00,
2013-01-25 01:57:00,2.5,-0.7,31.41,North,1,0.0,0.0,86,0.00,CLR,CLR,0.00,WeatherDisplay:10.37,2013-01-25 06:57:00,
2013-01-25 02:02:00,2.7,-0.3,31.42,North,0,0.0,0.0,87,0.00,CLR,CLR,0.00,WeatherDisplay:10.37,2013-01-25 07:02:00,
2013-01-25 02:07:00,2.8,-0.4,31.41,North,1,0.0,0.0,86,0.00,CLR,CLR,0.00,WeatherDisplay:10.37,2013-01-25 07:07:00,
2013-01-25 02:12:00,2.8,-0.4,31.41,North,1,0.0,0.0,86,0.00,CLR,CLR,0.00,WeatherDisplay:10.37,2013-01-25 07:12:00,
2013-01-25 02:17:00,2.9,-0.4,31.41,North,0,0.0,0.0,86,0.00,CLR,CLR,0.00,WeatherDisplay:10.37,2013-01-25 07:17:00,
2013-01-25 02:22:00,2.9,-0.3,31.41,North,1,0.0,0.0,86,0.00,CLR,CLR,0.00,WeatherDisplay:10.37,2013-01-25 07:22:00,
2013-01-25 02:27:00,3.1,-0.1,31.41,North,1,0.0,0.0,86,0.00,CLR,CLR,0.00,WeatherDisplay:10.37,2013-01-25 07:27:00,
2013-01-25 02:32:00,3.2,0.2,31.41,North,359,0.0,0.0,87,0.00,CLR,CLR,0.00,WeatherDisplay:10.37,2013-01-25 07:32:00,
2013-01-25 02:37:00,3.0,0.0,31.41,NW,322,0.0,0.0,87,0.00,CLR,CLR,0.00,WeatherDisplay:10.37,2013-01-25 07:37:00,
2013-01-25 02:42:00,2.9,-0.1,31.41,WNW,297,0.0,0.0,87,0.00,CLR,CLR,0.00,WeatherDisplay:10.37,2013-01-25 07:42:00,
2013-01-25 02:47:00,2.6,-0.4,31.41,WNW,297,0.0,0.0,87,0.00,CLR,CLR,0.00,WeatherDisplay:10.37,2013-01-25 07:47:00,
2013-01-25 02:52:00,2.4,-0.9,31.41,WNW,297,0.0,0.0,86,0.00,CLR,CLR,0.00,WeatherDisplay:10.37,2013-01-25 07:52:00,
2013-01-25 02:57:00,2.3,-0.7,31.40,WNW,297,0.0,0.0,87,0.00,CLR,CLR,0.00,WeatherDisplay:10.37,2013-01-25 07:57:00,
2013-01-25 03:02:00,2.2,-0.8,31.40,WNW,297,0.0,0.0,87,0.00,CLR,CLR,0.00,WeatherDisplay:10.37,2013-01-25 08:02:00,
2013-01-25 03:07:00,2.2,-0.8,31.40,WNW,297,0.0,0.0,87,0.00,CLR,CLR,0.00,WeatherDisplay:10.37,2013-01-25 08:07:00,
2013-01-25 03:12:00,2.3,-0.7,31.40,WNW,297,0.0,0.0,87,0.00,CLR,CLR,0.00,WeatherDisplay:10.37,2013-01-25 08:12:00,
2013-01-25 03:17:00,2.3,-0.7,31.40,WNW,297,0.0,0.0,87,0.00,CLR,CLR,0.00,WeatherDisplay:10.37,2013-01-25 08:17:00,
2013-01-25 03:22:00,2.4,-0.6,31.39,WNW,297,0.0,0.0,87,0.00,CLR,CLR,0.00,WeatherDisplay:10.37,2013-01-25 08:22:00,
2013-01-25 03:27:00,2.6,-0.4,31.39,WNW,297,0.0,0.0,87,0.00,CLR,CLR,0.00,WeatherDisplay:10.37,2013-01-25 08:27:00,
2013-01-25 03:32:00,2.7,-0.1,31.38,WNW,297,0.0,0.0,88,0.00,CLR,CLR,0.00,WeatherDisplay:10.37,2013-01-25 08:32:00,
2013-01-25 03:37:00,2.7,-0.3,31.38,WNW,297,0.0,0.0,87,0.00,CLR,CLR,0.00,WeatherDisplay:10.37,2013-01-25 08:37:00,
2013-01-25 03:42:00,2.8,-0.2,31.37,WNW,297,0.0,0.0,87,0.00,CLR,CLR,0.00,WeatherDisplay:10.37,2013-01-25 08:42:00,
2013-01-25 03:47:00,2.9,0.2,31.38,WNW,297,0.0,0.0,88,0.00,CLR,CLR,0.00,WeatherDisplay:10.37,2013-01-25 08:47:00,
2013-01-25 03:52:00,3.2,0.4,31.38,WNW,297,0.0,0.0,88,0.00,CLR,CLR,0.00,WeatherDisplay:10.37,2013-01-25 08:52:00,
2013-01-25 03:57:00,3.3,0.5,31.38,WNW,297,1.0,2.0,88,0.00,CLR,CLR,0.00,WeatherDisplay:10.37,2013-01-25 08:57:00,
2013-01-25 04:02:00,3.4,0.6,31.37,WNW,297,0.0,2.0,88,0.00,CLR,CLR,0.00,WeatherDisplay:10.37,2013-01-25 09:02:00,
2013-01-25 04:07:00,3.5,0.7,31.37,WNW,297,1.0,2.0,88,0.00,CLR,CLR,0.00,WeatherDisplay:10.37,2013-01-25 09:07:00,
2013-01-25 04:12:00,3.8,1.1,31.37,WNW,297,0.0,2.0,88,0.00,CLR,CLR,0.00,WeatherDisplay:10.37,2013-01-25 09:12:00,
2013-01-25 04:17:00,4.0,1.2,31.36,WNW,297,0.0,0.0,88,0.00,CLR,CLR,0.00,WeatherDisplay:10.37,2013-01-25 09:17:00,
2013-01-25 04:22:00,4.1,1.3,31.36,WNW,297,0.0,0.0,88,0.00,CLR,CLR,0.00,WeatherDisplay:10.37,2013-01-25 09:22:00,
2013-01-25 04:27:00,4.1,1.4,31.36,WNW,297,0.0,0.0,88,0.00,CLR,CLR,0.00,WeatherDisplay:10.37,2013-01-25 09:27:00,
2013-01-25 04:32:00,4.2,1.4,31.36,WNW,297,0.0,0.0,88,0.00,CLR,CLR,0.00,WeatherDisplay:10.37,2013-01-25 09:32:00,
2013-01-25 04:37:00,4.2,1.4,31.35,WNW,297,0.0,0.0,88,0.00,CLR,CLR,0.00,WeatherDisplay:10.37,2013-01-25 09:37:00,
2013-01-25 04:42:00,4.2,1.4,31.35,WNW,297,0.0,0.0,88,0.00,CLR,CLR,0.00,WeatherDisplay:10.37,2013-01-25 09:42:00,
2013-01-25 04:47:00,4.3,1.5,31.36,WNW,297,0.0,0.0,88,0.00,CLR,CLR,0.00,WeatherDisplay:10.37,2013-01-25 09:47:00,
2013-01-25 04:52:00,4.4,1.6,31.36,WNW,297,0.0,0.0,88,0.00,CLR,CLR,0.00,WeatherDisplay:10.37,2013-01-25 09:52:00,
2013-01-25 04:57:00,4.6,1.8,31.35,WNW,297,0.0,0.0,88,0.00,CLR,CLR,0.00,WeatherDisplay:10.37,2013-01-25 09:57:00,
2013-01-25 05:02:00,4.7,1.9,31.35,WNW,297,0.0,0.0,88,0.00,CLR,CLR,0.00,WeatherDisplay:10.37,2013-01-25 10:02:00,
2013-01-25 05:07:00,4.9,2.1,31.34,WNW,297,0.0,0.0,88,0.00,CLR,CLR,0.00,WeatherDisplay:10.37,2013-01-25 10:07:00,
2013-01-25 05:12:00,5.1,2.6,31.34,WNW,297,0.0,0.0,89,0.00,CLR,CLR,0.00,WeatherDisplay:10.37,2013-01-25 10:12:00,
2013-01-25 05:17:00,5.2,2.5,31.34,WNW,297,0.0,0.0,88,0.00,CLR,CLR,0.00,WeatherDisplay:10.37,2013-01-25 10:17:00,
2013-01-25 05:22:00,5.3,2.5,31.33,WNW,297,0.0,0.0,88,0.00,CLR,CLR,0.00,WeatherDisplay:10.37,2013-01-25 10:22:00,
2013-01-25 05:27:00,5.4,2.6,31.33,WNW,297,0.0,0.0,88,0.00,CLR,CLR,0.00,WeatherDisplay:10.37,2013-01-25 10:27:00,
2013-01-25 05:32:00,5.5,3.0,31.32,WNW,297,0.0,0.0,89,0.00,CLR,CLR,0.00,WeatherDisplay:10.37,2013-01-25 10:32:00,
2013-01-25 05:37:00,5.6,2.8,31.32,WNW,297,0.0,0.0,88,0.00,CLR,CLR,0.00,WeatherDisplay:10.37,2013-01-25 10:37:00,
2013-01-25 05:42:00,5.8,3.2,31.33,WNW,297,0.0,0.0,89,0.00,CLR,CLR,0.00,WeatherDisplay:10.37,2013-01-25 10:42:00,
2013-01-25 05:47:00,5.8,3.3,31.32,WNW,297,0.0,0.0,89,0.00,CLR,CLR,0.00,WeatherDisplay:10.37,2013-01-25 10:47:00,
2013-01-25 05:52:00,6.0,3.4,31.32,WNW,297,0.0,0.0,89,0.00,CLR,CLR,0.00,WeatherDisplay:10.37,2013-01-25 10:52:00,
2013-01-25 05:57:00,6.1,3.6,31.32,WNW,297,0.0,0.0,89,0.00,CLR,CLR,0.00,WeatherDisplay:10.37,2013-01-25 10:57:00,
2013-01-25 06:02:00,6.3,3.7,31.32,WNW,297,0.0,0.0,89,0.00,CLR,CLR,0.00,WeatherDisplay:10.37,2013-01-25 11:02:00,
2013-01-25 06:07:00,6.3,3.8,31.31,WNW,297,0.0,0.0,89,0.00,CLR,CLR,0.00,WeatherDisplay:10.37,2013-01-25 11:07:00,
2013-01-25 06:12:00,6.4,3.9,31.31,WNW,297,0.0,0.0,89,0.00,CLR,CLR,0.00,WeatherDisplay:10.37,2013-01-25 11:12:00,
2013-01-25 06:17:00,6.6,4.0,31.30,WNW,297,0.0,0.0,89,0.00,CLR,CLR,0.00,WeatherDisplay:10.37,2013-01-25 11:17:00,
2013-01-25 06:22:00,6.7,4.1,31.30,WNW,297,0.0,0.0,89,0.00,CLR,CLR,0.00,WeatherDisplay:10.37,2013-01-25 11:22:00,
2013-01-25 06:27:00,6.8,4.2,31.30,WNW,297,0.0,0.0,89,0.00,CLR,CLR,0.00,WeatherDisplay:10.37,2013-01-25 11:27:00,
2013-01-25 06:32:00,6.8,4.2,31.29,WNW,297,0.0,0.0,89,0.00,CLR,CLR,0.00,WeatherDisplay:10.37,2013-01-25 11:32:00,
2013-01-25 06:37:00,6.9,4.3,31.29,WNW,297,0.0,0.0,89,0.00,CLR,CLR,0.00,WeatherDisplay:10.37,2013-01-25 11:37:00,
2013-01-25 06:47:00,6.9,4.4,31.28,WNW,297,0.0,0.0,89,0.00,CLR,CLR,0.00,WeatherDisplay:10.37,2013-01-25 11:47:00,
2013-01-25 06:52:00,7.0,4.4,31.27,WNW,297,0.0,0.0,89,0.00,CLR,CLR,0.00,WeatherDisplay:10.37,2013-01-25 11:52:00,
2013-01-25 06:57:00,7.0,4.5,31.26,WNW,297,0.0,0.0,89,0.00,CLR,CLR,0.00,WeatherDisplay:10.37,2013-01-25 11:57:00,
2013-01-25 07:02:00,7.1,4.5,31.26,WNW,297,0.0,0.0,89,0.00,CLR,CLR,0.00,WeatherDisplay:10.37,2013-01-25 12:02:00,
2013-01-25 07:07:00,7.2,4.6,31.26,WNW,297,0.0,0.0,89,0.00,CLR,CLR,0.00,WeatherDisplay:10.37,2013-01-25 12:07:00,
2013-01-25 07:12:00,7.3,4.7,31.25,WNW,297,0.0,0.0,89,0.00,CLR,CLR,0.00,WeatherDisplay:10.37,2013-01-25 12:12:00,
2013-01-25 07:17:00,7.3,4.8,31.25,WNW,297,0.0,0.0,89,0.00,CLR,CLR,0.00,WeatherDisplay:10.37,2013-01-25 12:17:00,
2013-01-25 07:22:00,7.4,4.8,31.24,WNW,297,0.0,0.0,89,0.00,CLR,CLR,0.00,WeatherDisplay:10.37,2013-01-25 12:22:00,
2013-01-25 07:27:00,7.4,4.8,31.24,WNW,297,0.0,0.0,89,0.00,CLR,CLR,0.00,WeatherDisplay:10.37,2013-01-25 12:27:00,
2013-01-25 07:32:00,7.6,5.0,31.23,WNW,297,0.0,0.0,89,0.00,CLR,CLR,0.00,WeatherDisplay:10.37,2013-01-25 12:32:00,
2013-01-25 07:37:00,7.6,5.0,31.23,WNW,297,0.0,0.0,89,0.00,CLR,CLR,0.00,WeatherDisplay:10.37,2013-01-25 12:37:00,
2013-01-25 07:42:00,7.7,5.1,31.23,WNW,297,0.0,0.0,89,0.00,CLR,CLR,0.00,WeatherDisplay:10.37,2013-01-25 12:42:00,
2013-01-25 07:47:00,7.7,5.1,31.23,WNW,297,0.0,0.0,89,0.00,CLR,CLR,0.00,WeatherDisplay:10.37,2013-01-25 12:47:00,
2013-01-25 07:52:00,7.7,5.2,31.23,WNW,297,0.0,0.0,89,0.00,CLR,CLR,0.00,WeatherDisplay:10.37,2013-01-25 12:52:00,
2013-01-25 07:57:00,7.9,5.3,31.22,WNW,297,0.0,0.0,89,0.00,CLR,CLR,0.00,WeatherDisplay:10.37,2013-01-25 12:57:00,
2013-01-25 08:02:00,8.0,5.4,31.22,WNW,297,0.0,0.0,89,0.00,CLR,CLR,0.00,WeatherDisplay:10.37,2013-01-25 13:02:00,
2013-01-25 08:07:00,8.1,5.5,31.22,WNW,297,0.0,0.0,89,0.00,CLR,CLR,0.00,WeatherDisplay:10.37,2013-01-25 13:07:00,
2013-01-25 08:12:00,8.2,5.6,31.22,WNW,297,0.0,0.0,89,0.00,CLR,CLR,0.00,WeatherDisplay:10.37,2013-01-25 13:12:00,
2013-01-25 08:17:00,8.3,5.7,31.21,WNW,297,0.0,0.0,89,0.00,CLR,CLR,0.00,WeatherDisplay:10.37,2013-01-25 13:17:00,
2013-01-25 08:22:00,8.4,5.8,31.21,WNW,297,0.0,0.0,89,0.00,CLR,CLR,0.00,WeatherDisplay:10.37,2013-01-25 13:22:00,
2013-01-25 08:27:00,8.6,6.0,31.21,WNW,297,0.0,0.0,89,0.00,CLR,CLR,0.00,WeatherDisplay:10.37,2013-01-25 13:27:00,
2013-01-25 08:32:00,8.9,6.3,31.20,WNW,297,0.0,0.0,89,0.00,CLR,CLR,0.00,WeatherDisplay:10.37,2013-01-25 13:32:00,
2013-01-25 08:37:00,9.0,6.4,31.20,WNW,297,0.0,0.0,89,0.00,CLR,CLR,0.00,WeatherDisplay:10.37,2013-01-25 13:37:00,
2013-01-25 08:42:00,9.1,6.5,31.21,WNW,297,0.0,0.0,89,0.00,CLR,CLR,0.00,WeatherDisplay:10.37,2013-01-25 13:42:00,
2013-01-25 08:47:00,9.2,6.6,31.21,WNW,297,0.0,0.0,89,0.00,CLR,CLR,0.00,WeatherDisplay:10.37,2013-01-25 13:47:00,
2013-01-25 08:52:00,9.3,6.7,31.21,WNW,297,0.0,0.0,89,0.00,CLR,CLR,0.00,WeatherDisplay:10.37,2013-01-25 13:52:00,
2013-01-25 08:57:00,9.5,6.9,31.20,WNW,297,0.0,0.0,89,0.00,CLR,CLR,0.00,WeatherDisplay:10.37,2013-01-25 13:57:00,
2013-01-25 09:02:00,9.6,7.0,31.20,WNW,297,0.0,0.0,89,0.00,CLR,CLR,0.00,WeatherDisplay:10.37,2013-01-25 14:02:00,
2013-01-25 09:07:00,9.7,7.1,31.20,WNW,297,0.0,0.0,89,0.00,CLR,CLR,0.00,WeatherDisplay:10.37,2013-01-25 14:07:00,
2013-01-25 09:12:00,9.8,7.2,31.20,WNW,297,0.0,0.0,89,0.00,CLR,CLR,0.00,WeatherDisplay:10.37,2013-01-25 14:12:00,
2013-01-25 09:17:00,10.0,7.4,31.20,WNW,297,0.0,0.0,89,0.00,CLR,CLR,0.00,WeatherDisplay:10.37,2013-01-25 14:17:00,
2013-01-25 09:22:00,10.2,7.6,31.20,WNW,297,0.0,1.0,89,0.00,CLR,CLR,0.00,WeatherDisplay:10.37,2013-01-25 14:22:00,
2013-01-25 09:27:00,10.3,7.7,31.20,WNW,297,0.0,2.0,89,0.00,CLR,CLR,0.00,WeatherDisplay:10.37,2013-01-25 14:27:00,
2013-01-25 09:32:00,10.5,7.9,31.20,WNW,297,0.0,0.0,89,0.00,CLR,CLR,0.00,WeatherDisplay:10.37,2013-01-25 14:32:00,
2013-01-25 09:37:00,10.8,8.2,31.20,WNW,297,0.0,0.0,89,0.00,CLR,CLR,0.00,WeatherDisplay:10.37,2013-01-25 14:37:00,
2013-01-25 09:42:00,11.0,8.6,31.19,WNW,297,0.0,0.0,90,0.00,CLR,CLR,0.00,WeatherDisplay:10.37,2013-01-25 14:42:00,
2013-01-25 09:47:00,11.1,8.5,31.19,WNW,297,0.0,0.0,89,0.00,CLR,CLR,0.00,WeatherDisplay:10.37,2013-01-25 14:47:00,
2013-01-25 09:52:00,11.2,8.6,31.19,WNW,297,0.0,0.0,89,0.00,CLR,CLR,0.00,WeatherDisplay:10.37,2013-01-25 14:52:00,
2013-01-25 09:57:00,11.4,8.8,31.19,WNW,297,0.0,0.0,89,0.00,CLR,CLR,0.00,WeatherDisplay:10.37,2013-01-25 14:57:00,
2013-01-25 10:02:00,11.5,8.9,31.18,WNW,297,0.0,0.0,89,0.00,CLR,CLR,0.00,WeatherDisplay:10.37,2013-01-25 15:02:00,
2013-01-25 10:07:00,11.7,9.1,31.18,WNW,297,0.0,0.0,89,0.00,CLR,CLR,0.00,WeatherDisplay:10.37,2013-01-25 15:07:00,
2013-01-25 10:12:00,12.1,9.5,31.18,WNW,297,0.0,0.0,89,0.00,CLR,CLR,0.00,WeatherDisplay:10.37,2013-01-25 15:12:00,
2013-01-25 10:17:00,12.7,10.3,31.17,SW,221,3.0,6.0,90,0.00,CLR,CLR,0.00,WeatherDisplay:10.37,2013-01-25 15:17:00,
2013-01-25 10:22:00,13.4,10.8,31.17,South,169,0.0,5.0,89,0.00,CLR,CLR,0.00,WeatherDisplay:10.37,2013-01-25 15:22:00,
2013-01-25 10:27:00,13.9,11.0,31.17,SSE,166,0.0,5.0,88,0.00,CLR,CLR,0.00,WeatherDisplay:10.37,2013-01-25 15:27:00,
2013-01-25 10:32:00,14.4,11.2,31.17,SE,143,1.0,6.0,87,0.00,CLR,CLR,0.00,WeatherDisplay:10.37,2013-01-25 15:32:00,
2013-01-25 10:37:00,14.7,11.3,31.17,SSE,147,3.0,7.0,86,0.00,CLR,CLR,0.00,WeatherDisplay:10.37,2013-01-25 15:37:00,
2013-01-25 10:42:00,14.9,11.5,31.17,SE,139,2.0,7.0,86,0.00,CLR,CLR,0.00,WeatherDisplay:10.37,2013-01-25 15:42:00,
2013-01-25 10:47:00,15.1,11.6,31.17,SE,142,3.0,7.0,86,0.00,CLR,CLR,0.00,WeatherDisplay:10.37,2013-01-25 15:47:00,
2013-01-25 10:52:00,15.1,11.4,31.17,SSE,160,2.0,8.0,85,0.00,CLR,CLR,0.00,WeatherDisplay:10.37,2013-01-25 15:52:00,
2013-01-25 10:57:00,15.2,11.7,31.16,SSE,154,5.0,8.0,86,0.00,CLR,CLR,0.00,WeatherDisplay:10.37,2013-01-25 15:57:00,
2013-01-25 11:02:00,15.2,11.5,31.16,SSE,158,7.0,9.0,85,0.00,CLR,CLR,0.00,WeatherDisplay:10.37,2013-01-25 16:02:00,
2013-01-25 11:07:00,15.2,11.8,31.16,SSE,162,6.0,7.0,86,0.00,CLR,CLR,0.00,WeatherDisplay:10.37,2013-01-25 16:07:00,
2013-01-25 11:12:00,15.3,11.9,31.15,SSE,149,5.0,8.0,86,0.00,CLR,CLR,0.00,WeatherDisplay:10.37,2013-01-25 16:12:00,
2013-01-25 11:17:00,15.4,12.0,31.15,SE,143,3.0,8.0,86,0.00,CLR,CLR,0.00,WeatherDisplay:10.37,2013-01-25 16:17:00,
2013-01-25 11:22:00,15.5,12.1,31.15,SE,135,1.0,5.0,86,0.00,CLR,CLR,0.00,WeatherDisplay:10.37,2013-01-25 16:22:00,
2013-01-25 11:27:00,15.6,12.1,31.15,SE,145,5.0,8.0,86,0.00,CLR,CLR,0.00,WeatherDisplay:10.37,2013-01-25 16:27:00,
2013-01-25 11:32:00,15.5,12.1,31.14,SSE,158,5.0,8.0,86,0.00,CLR,CLR,0.00,WeatherDisplay:10.37,2013-01-25 16:32:00,
2013-01-25 11:37:00,15.5,12.1,31.13,SE,141,0.0,6.0,86,0.00,CLR,CLR,0.00,WeatherDisplay:10.37,2013-01-25 16:37:00,
2013-01-25 11:42:00,15.7,12.5,31.12,East,101,1.0,5.0,87,0.00,CLR,CLR,0.00,WeatherDisplay:10.37,2013-01-25 16:42:00,
2013-01-25 11:52:00,15.6,12.4,31.11,SE,129,3.0,7.0,87,0.00,CLR,CLR,0.00,WeatherDisplay:10.37,2013-01-25 16:52:00,
2013-01-25 11:57:00,15.7,12.5,31.10,SE,145,1.0,4.0,87,0.00,CLR,CLR,0.00,WeatherDisplay:10.37,2013-01-25 16:57:00,
2013-01-25 12:02:00,15.8,12.6,31.09,SE,139,3.0,5.0,87,0.00,CLR,CLR,0.00,WeatherDisplay:10.37,2013-01-25 17:02:00,
2013-01-25 12:07:00,15.8,12.6,31.09,ESE,115,2.0,5.0,87,0.00,CLR,CLR,0.00,WeatherDisplay:10.37,2013-01-25 17:07:00,
2013-01-25 12:12:00,15.9,12.7,31.09,ESE,105,0.0,4.0,87,0.00,CLR,CLR,0.00,WeatherDisplay:10.37,2013-01-25 17:12:00,
2013-01-25 12:17:00,15.9,13.0,31.08,ESE,109,0.0,4.0,88,0.00,CLR,CLR,0.00,WeatherDisplay:10.37,2013-01-25 17:17:00,
2013-01-25 12:22:00,16.0,13.1,31.08,ESE,104,0.0,4.0,88,0.00,CLR,CLR,0.00,WeatherDisplay:10.37,2013-01-25 17:22:00,
2013-01-25 12:27:00,16.0,13.1,31.08,East,96,0.0,0.0,88,0.00,CLR,CLR,0.00,WeatherDisplay:10.37,2013-01-25 17:27:00,
2013-01-25 12:47:00,16.1,12.7,31.06,North,1,0.0,0.0,86,0.00,CLR,CLR,0.00,WeatherDisplay:10.37,2013-01-25 17:47:00,
2013-01-25 12:52:00,16.2,12.5,31.06,North,1,0.0,0.0,85,0.00,CLR,CLR,0.00,WeatherDisplay:10.37,2013-01-25 17:52:00,
2013-01-25 12:57:00,16.1,12.4,31.06,North,0,0.0,0.0,85,0.00,CLR,CLR,0.00,WeatherDisplay:10.37,2013-01-25 17:57:00,
2013-01-25 13:02:00,16.1,12.7,31.06,North,1,0.0,0.0,86,0.00,CLR,CLR,0.00,WeatherDisplay:10.37,2013-01-25 18:02:00,
2013-01-25 13:07:00,16.1,12.7,31.06,North,0,0.0,0.0,86,0.00,CLR,CLR,0.00,WeatherDisplay:10.37,2013-01-25 18:07:00,
2013-01-25 13:12:00,16.0,12.6,31.05,North,1,0.0,0.0,86,0.00,CLR,CLR,0.00,WeatherDisplay:10.37,2013-01-25 18:12:00,
2013-01-25 13:17:00,16.0,12.3,31.05,North,0,0.0,0.0,85,0.00,CLR,CLR,0.00,WeatherDisplay:10.37,2013-01-25 18:17:00,
2013-01-25 13:22:00,15.9,12.2,31.05,North,0,0.0,0.0,85,0.00,CLR,CLR,0.00,WeatherDisplay:10.37,2013-01-25 18:22:00,
2013-01-25 13:27:00,16.0,12.6,31.04,North,0,0.0,0.0,86,0.00,CLR,CLR,0.00,WeatherDisplay:10.37,2013-01-25 18:27:00,
2013-01-25 13:32:00,15.9,12.5,31.04,North,0,0.0,0.0,86,0.00,CLR,CLR,0.00,WeatherDisplay:10.37,2013-01-25 18:32:00,
2013-01-25 13:37:00,15.8,12.1,31.04,North,0,0.0,0.0,85,0.00,CLR,CLR,0.00,WeatherDisplay:10.37,2013-01-25 18:37:00,
2013-01-25 13:42:00,15.8,12.1,31.03,North,0,0.0,0.0,85,0.00,CLR,CLR,0.00,WeatherDisplay:10.37,2013-01-25 18:42:00,
2013-01-25 13:47:00,16.0,12.6,31.03,North,0,0.0,0.0,86,0.00,CLR,CLR,0.00,WeatherDisplay:10.37,2013-01-25 18:47:00,
2013-01-25 13:52:00,16.2,12.8,31.03,North,0,0.0,0.0,86,0.00,CLR,CLR,0.00,WeatherDisplay:10.37,2013-01-25 18:52:00,
2013-01-25 13:57:00,16.5,12.8,31.02,North,0,0.0,0.0,85,0.00,CLR,CLR,0.00,WeatherDisplay:10.37,2013-01-25 18:57:00,
2013-01-25 14:02:00,16.8,13.1,31.02,North,0,0.0,0.0,85,0.00,CLR,CLR,0.00,WeatherDisplay:10.37,2013-01-25 19:02:00,
2013-01-25 14:07:00,17.2,13.2,31.02,North,1,0.0,0.0,84,0.00,CLR,CLR,0.00,WeatherDisplay:10.37,2013-01-25 19:07:00,
2013-01-25 14:12:00,17.3,13.0,31.01,North,0,0.0,0.0,83,0.00,CLR,CLR,0.00,WeatherDisplay:10.37,2013-01-25 19:12:00,
2013-01-25 14:17:00,17.3,13.0,31.02,North,0,0.0,0.0,83,0.00,CLR,CLR,0.00,WeatherDisplay:10.37,2013-01-25 19:17:00,
2013-01-25 14:22:00,17.3,13.0,31.01,North,0,0.0,0.0,83,0.00,CLR,CLR,0.00,WeatherDisplay:10.37,2013-01-25 19:22:00,
2013-01-25 14:27:00,17.5,12.9,31.01,North,0,0.0,0.0,82,0.00,CLR,CLR,0.00,WeatherDisplay:10.37,2013-01-25 19:27:00,
2013-01-25 14:32:00,17.6,13.0,31.00,North,0,0.0,0.0,82,0.00,CLR,CLR,0.00,WeatherDisplay:10.37,2013-01-25 19:32:00,
2013-01-25 14:37:00,17.7,13.1,31.01,North,0,0.0,0.0,82,0.00,CLR,CLR,0.00,WeatherDisplay:10.37,2013-01-25 19:37:00,
2013-01-25 14:42:00,17.7,12.8,31.01,North,1,0.0,0.0,81,0.00,CLR,CLR,0.00,WeatherDisplay:10.37,2013-01-25 19:42:00,
2013-01-25 14:47:00,17.5,12.7,31.00,North,1,0.0,0.0,81,0.00,CLR,CLR,0.00,WeatherDisplay:10.37,2013-01-25 19:47:00,
2013-01-25 14:52:00,17.8,13.0,31.00,North,0,0.0,0.0,81,0.00,CLR,CLR,0.00,WeatherDisplay:10.37,2013-01-25 19:52:00,
2013-01-25 14:57:00,17.9,12.8,31.00,North,0,0.0,0.0,80,0.00,CLR,CLR,0.00,WeatherDisplay:10.37,2013-01-25 19:57:00,
2013-01-25 15:02:00,17.9,12.7,30.99,North,0,0.0,0.0,80,0.00,CLR,CLR,0.00,WeatherDisplay:10.37,2013-01-25 20:02:00,
2013-01-25 15:07:00,17.9,12.8,30.99,North,0,0.0,0.0,80,0.00,CLR,CLR,0.00,WeatherDisplay:10.37,2013-01-25 20:07:00,
2013-01-25 15:12:00,18.3,13.1,30.99,North,1,0.0,0.0,80,0.00,CLR,CLR,0.00,WeatherDisplay:10.37,2013-01-25 20:12:00,
2013-01-25 15:17:00,18.8,13.6,30.99,North,0,0.0,0.0,80,0.00,CLR,CLR,0.00,WeatherDisplay:10.37,2013-01-25 20:17:00,
2013-01-25 15:22:00,18.7,13.3,30.99,North,1,0.0,0.0,79,0.00,CLR,CLR,0.00,WeatherDisplay:10.37,2013-01-25 20:22:00,
2013-01-25 15:27:00,18.2,12.5,30.99,North,0,0.0,0.0,78,0.00,CLR,CLR,0.00,WeatherDisplay:10.37,2013-01-25 20:27:00,
2013-01-25 15:32:00,17.9,12.4,30.99,North,0,0.0,0.0,79,0.00,CLR,CLR,0.00,WeatherDisplay:10.37,2013-01-25 20:32:00,
2013-01-25 15:37:00,17.3,12.2,30.98,North,1,0.0,0.0,80,0.00,CLR,CLR,0.00,WeatherDisplay:10.37,2013-01-25 20:37:00,
2013-01-25 15:42:00,17.3,12.5,30.98,North,1,0.0,0.0,81,0.00,CLR,CLR,0.00,WeatherDisplay:10.37,2013-01-25 20:42:00,
2013-01-25 15:47:00,17.5,12.4,30.98,North,1,0.0,0.0,80,0.00,CLR,CLR,0.00,WeatherDisplay:10.37,2013-01-25 20:47:00,
2013-01-25 15:52:00,17.5,12.4,30.98,North,1,0.0,0.0,80,0.00,CLR,CLR,0.00,WeatherDisplay:10.37,2013-01-25 20:52:00,
2013-01-25 15:57:00,17.5,12.7,30.98,North,0,0.0,0.0,81,0.00,CLR,CLR,0.00,WeatherDisplay:10.37,2013-01-25 20:57:00,
2013-01-25 16:02:00,17.5,12.7,30.97,North,0,0.0,0.0,81,0.00,CLR,CLR,0.00,WeatherDisplay:10.37,2013-01-25 21:02:00,
2013-01-25 16:07:00,17.3,12.5,30.97,North,1,0.0,0.0,81,0.00,CLR,CLR,0.00,WeatherDisplay:10.37,2013-01-25 21:07:00,
2013-01-25 16:12:00,17.2,12.1,30.97,North,0,0.0,0.0,80,0.00,CLR,CLR,0.00,WeatherDisplay:10.37,2013-01-25 21:12:00,
2013-01-25 16:17:00,17.1,12.0,30.97,North,0,0.0,0.0,80,0.00,CLR,CLR,0.00,WeatherDisplay:10.37,2013-01-25 21:17:00,
2013-01-25 16:22:00,17.1,12.0,30.97,North,0,0.0,0.0,80,0.00,CLR,CLR,0.00,WeatherDisplay:10.37,2013-01-25 21:22:00,
2013-01-25 16:27:00,17.1,12.3,30.97,North,0,0.0,0.0,81,0.00,CLR,CLR,0.00,WeatherDisplay:10.37,2013-01-25 21:27:00,
2013-01-25 16:32:00,17.1,12.6,30.97,North,0,0.0,0.0,82,0.00,CLR,CLR,0.00,WeatherDisplay:10.37,2013-01-25 21:32:00,
2013-01-25 16:37:00,17.1,12.6,30.96,North,0,0.0,0.0,82,0.00,CLR,CLR,0.00,WeatherDisplay:10.37,2013-01-25 21:37:00,
2013-01-25 16:42:00,17.2,12.6,30.97,North,0,0.0,0.0,82,0.00,CLR,CLR,0.00,WeatherDisplay:10.37,2013-01-25 21:42:00,
2013-01-25 16:47:00,17.2,12.6,30.97,North,0,0.0,0.0,82,0.00,CLR,CLR,0.00,WeatherDisplay:10.37,2013-01-25 21:47:00,
2013-01-25 16:52:00,17.1,12.6,30.97,North,0,0.0,0.0,82,0.00,CLR,CLR,0.00,WeatherDisplay:10.37,2013-01-25 21:52:00,
2013-01-25 16:57:00,17.0,12.5,30.97,North,0,0.0,0.0,82,0.00,CLR,CLR,0.00,WeatherDisplay:10.37,2013-01-25 21:57:00,
2013-01-25 17:02:00,17.0,12.5,30.97,North,0,0.0,0.0,82,0.00,CLR,CLR,0.00,WeatherDisplay:10.37,2013-01-25 22:02:00,
2013-01-25 17:07:00,17.0,12.4,30.97,North,0,0.0,0.0,82,0.00,CLR,CLR,0.00,WeatherDisplay:10.37,2013-01-25 22:07:00,
2013-01-25 17:12:00,16.8,12.3,30.98,North,0,0.0,0.0,82,0.00,CLR,CLR,0.00,WeatherDisplay:10.37,2013-01-25 22:12:00,
2013-01-25 17:17:00,16.8,12.5,30.97,North,0,0.0,0.0,83,0.00,CLR,CLR,0.00,WeatherDisplay:10.37,2013-01-25 22:17:00,
2013-01-25 17:22:00,16.7,12.4,30.97,North,1,0.0,0.0,83,0.00,CLR,CLR,0.00,WeatherDisplay:10.37,2013-01-25 22:22:00,
2013-01-25 17:27:00,16.7,12.4,30.98,North,0,0.0,0.0,83,0.00,CLR,CLR,0.00,WeatherDisplay:10.37,2013-01-25 22:27:00,
2013-01-25 17:32:00,16.6,12.6,30.97,North,0,0.0,0.0,84,0.00,CLR,CLR,0.00,WeatherDisplay:10.37,2013-01-25 22:32:00,
2013-01-25 17:37:00,16.5,12.6,30.98,North,0,0.0,0.0,84,0.00,CLR,CLR,0.00,WeatherDisplay:10.37,2013-01-25 22:37:00,
2013-01-25 17:42:00,16.5,12.5,30.98,North,0,0.0,0.0,84,0.00,CLR,CLR,0.00,WeatherDisplay:10.37,2013-01-25 22:42:00,
2013-01-25 17:47:00,16.4,12.4,30.97,North,0,0.0,0.0,84,0.00,CLR,CLR,0.00,WeatherDisplay:10.37,2013-01-25 22:47:00,
2013-01-25 17:52:00,16.4,12.4,30.97,North,0,0.0,0.0,84,0.00,CLR,CLR,0.00,WeatherDisplay:10.37,2013-01-25 22:52:00,
2013-01-25 17:57:00,16.4,12.4,30.97,North,0,0.0,0.0,84,0.00,CLR,CLR,0.00,WeatherDisplay:10.37,2013-01-25 22:57:00,
2013-01-25 18:02:00,16.4,12.7,30.96,North,0,0.0,0.0,85,0.00,CLR,CLR,0.00,WeatherDisplay:10.37,2013-01-25 23:02:00,
2013-01-25 18:07:00,16.4,12.7,30.96,North,0,0.0,0.0,85,0.00,CLR,CLR,0.00,WeatherDisplay:10.37,2013-01-25 23:07:00,
2013-01-25 18:12:00,16.3,12.6,30.97,North,0,0.0,0.0,85,0.00,CLR,CLR,0.00,WeatherDisplay:10.37,2013-01-25 23:12:00,
2013-01-25 18:17:00,16.2,12.5,30.97,North,0,0.0,0.0,85,0.00,CLR,CLR,0.00,WeatherDisplay:10.37,2013-01-25 23:17:00,
2013-01-25 18:22:00,16.2,12.8,30.97,North,0,0.0,0.0,86,0.00,CLR,CLR,0.00,WeatherDisplay:10.37,2013-01-25 23:22:00,
2013-01-25 18:27:00,16.3,12.8,30.97,North,1,0.0,0.0,86,0.00,CLR,CLR,0.00,WeatherDisplay:10.37,2013-01-25 23:27:00,
2013-01-25 18:32:00,16.3,12.8,30.98,North,0,0.0,0.0,86,0.00,CLR,CLR,0.00,WeatherDisplay:10.37,2013-01-25 23:32:00,
2013-01-25 18:37:00,16.2,12.7,30.98,North,1,0.0,0.0,86,0.00,CLR,CLR,0.00,WeatherDisplay:10.37,2013-01-25 23:37:00,
2013-01-25 18:42:00,16.2,12.7,30.98,North,0,0.0,0.0,86,0.00,CLR,CLR,0.00,WeatherDisplay:10.37,2013-01-25 23:42:00,
2013-01-25 18:47:00,16.2,12.7,30.98,North,0,0.0,0.0,86,0.00,CLR,CLR,0.00,WeatherDisplay:10.37,2013-01-25 23:47:00,
2013-01-25 18:52:00,16.1,12.9,30.98,NNE,15,0.0,0.0,87,0.00,CLR,CLR,0.00,WeatherDisplay:10.37,2013-01-25 23:52:00,
2013-01-25 18:57:00,16.0,13.1,30.98,SSE,163,0.0,0.0,88,0.00,CLR,CLR,0.00,WeatherDisplay:10.37,2013-01-25 23:57:00,
2013-01-25 19:02:00,15.9,13.0,30.98,South,171,0.0,0.0,88,0.00,CLR,CLR,0.00,WeatherDisplay:10.37,2013-01-26 00:02:00,
2013-01-25 19:07:00,16.0,13.1,30.97,South,171,0.0,1.0,88,0.00,CLR,CLR,0.00,WeatherDisplay:10.37,2013-01-26 00:07:00,
2013-01-25 19:17:00,16.3,13.6,30.97,South,171,0.0,0.0,89,0.00,CLR,CLR,0.00,WeatherDisplay:10.37,2013-01-26 00:17:00,
2013-01-25 19:22:00,16.4,13.7,30.96,South,171,0.0,1.0,89,0.00,CLR,CLR,0.00,WeatherDisplay:10.37,2013-01-26 00:22:00,
2013-01-25 19:27:00,16.4,13.7,30.96,South,171,0.0,0.0,89,0.00,CLR,CLR,0.00,WeatherDisplay:10.37,2013-01-26 00:27:00,
2013-01-25 19:32:00,16.3,13.7,30.97,South,171,0.0,0.0,89,0.00,CLR,CLR,0.00,WeatherDisplay:10.37,2013-01-26 00:32:00,
2013-01-25 19:37:00,16.3,13.6,30.97,South,171,0.0,0.0,89,0.00,CLR,CLR,0.00,WeatherDisplay:10.37,2013-01-26 00:37:00,
2013-01-25 19:42:00,16.3,13.3,30.97,South,171,0.0,0.0,88,0.00,CLR,CLR,0.00,WeatherDisplay:10.37,2013-01-26 00:42:00,
2013-01-25 19:47:00,16.2,13.5,30.98,South,171,0.0,0.0,89,0.00,CLR,CLR,0.00,WeatherDisplay:10.37,2013-01-26 00:47:00,
2013-01-25 19:52:00,16.1,13.4,30.98,South,171,0.0,0.0,89,0.00,CLR,CLR,0.00,WeatherDisplay:10.37,2013-01-26 00:52:00,
2013-01-25 19:57:00,16.1,13.4,30.98,South,171,0.0,0.0,89,0.00,CLR,CLR,0.00,WeatherDisplay:10.37,2013-01-26 00:57:00,
2013-01-25 20:02:00,15.9,13.0,30.98,South,171,0.0,0.0,88,0.00,CLR,CLR,0.00,WeatherDisplay:10.37,2013-01-26 01:02:00,
2013-01-25 20:07:00,15.7,12.8,30.98,South,171,0.0,0.0,88,0.00,CLR,CLR,0.00,WeatherDisplay:10.37,2013-01-26 01:07:00,
2013-01-25 20:12:00,15.5,12.9,30.97,South,171,0.0,0.0,89,0.00,CLR,CLR,0.00,WeatherDisplay:10.37,2013-01-26 01:12:00,
2013-01-25 20:17:00,15.7,13.0,30.97,South,171,0.0,0.0,89,0.00,CLR,CLR,0.00,WeatherDisplay:10.37,2013-01-26 01:17:00,
2013-01-25 20:22:00,15.8,13.1,30.97,South,171,0.0,0.0,89,0.00,CLR,CLR,0.00,WeatherDisplay:10.37,2013-01-26 01:22:00,
2013-01-25 20:27:00,15.9,13.2,30.97,South,171,0.0,0.0,89,0.00,CLR,CLR,0.00,WeatherDisplay:10.37,2013-01-26 01:27:00,
2013-01-25 20:32:00,16.0,13.6,30.97,South,171,0.0,0.0,90,0.00,CLR,CLR,0.00,WeatherDisplay:10.37,2013-01-26 01:32:00,
2013-01-25 20:37:00,16.0,13.3,30.97,South,171,0.0,0.0,89,0.00,CLR,CLR,0.00,WeatherDisplay:10.37,2013-01-26 01:37:00,
2013-01-25 20:42:00,16.1,13.7,30.98,South,171,0.0,0.0,90,0.00,CLR,CLR,0.00,WeatherDisplay:10.37,2013-01-26 01:42:00,
2013-01-25 20:47:00,16.1,13.6,30.98,South,171,0.0,0.0,90,0.00,CLR,CLR,0.00,WeatherDisplay:10.37,2013-01-26 01:47:00,
2013-01-25 20:52:00,16.0,13.3,30.98,South,171,0.0,0.0,89,0.00,CLR,CLR,0.00,WeatherDisplay:10.37,2013-01-26 01:52:00,
2013-01-25 20:57:00,16.0,13.3,30.97,South,171,0.0,0.0,89,0.00,CLR,CLR,0.00,WeatherDisplay:10.37,2013-01-26 01:57:00,
2013-01-25 21:02:00,15.9,13.5,30.97,South,171,0.0,0.0,90,0.00,CLR,CLR,0.00,WeatherDisplay:10.37,2013-01-26 02:02:00,
2013-01-25 21:07:00,15.9,13.5,30.97,South,171,0.0,0.0,90,0.00,CLR,CLR,0.00,WeatherDisplay:10.37,2013-01-26 02:07:00,
2013-01-25 21:12:00,15.8,13.4,30.97,South,171,0.0,0.0,90,0.00,CLR,CLR,0.00,WeatherDisplay:10.37,2013-01-26 02:12:00,
2013-01-25 21:17:00,15.7,13.3,30.97,South,171,0.0,0.0,90,0.00,CLR,CLR,0.00,WeatherDisplay:10.37,2013-01-26 02:17:00,
2013-01-25 21:22:00,15.7,13.3,30.98,South,171,0.0,0.0,90,0.00,CLR,CLR,0.00,WeatherDisplay:10.37,2013-01-26 02:22:00,
2013-01-25 21:27:00,15.6,13.2,30.98,South,171,0.0,0.0,90,0.00,CLR,CLR,0.00,WeatherDisplay:10.37,2013-01-26 02:27:00,
2013-01-25 21:32:00,15.5,13.1,30.98,South,171,0.0,0.0,90,0.00,CLR,CLR,0.00,WeatherDisplay:10.37,2013-01-26 02:32:00,
2013-01-25 21:37:00,15.5,13.1,30.98,South,171,0.0,0.0,90,0.00,CLR,CLR,0.00,WeatherDisplay:10.37,2013-01-26 02:37:00,
2013-01-25 21:42:00,15.5,13.1,30.98,South,171,0.0,0.0,90,0.00,CLR,CLR,0.00,WeatherDisplay:10.37,2013-01-26 02:42:00,
2013-01-25 21:47:00,15.5,13.1,30.98,South,171,0.0,0.0,90,0.00,CLR,CLR,0.00,WeatherDisplay:10.37,2013-01-26 02:47:00,
2013-01-25 21:52:00,15.5,13.1,30.99,South,171,0.0,0.0,90,0.00,CLR,CLR,0.00,WeatherDisplay:10.37,2013-01-26 02:52:00,
2013-01-25 21:57:00,15.6,13.2,30.99,South,171,0.0,0.0,90,0.00,CLR,CLR,0.00,WeatherDisplay:10.37,2013-01-26 02:57:00,
2013-01-25 22:02:00,15.6,13.2,30.99,South,171,0.0,0.0,90,0.00,CLR,CLR,0.00,WeatherDisplay:10.37,2013-01-26 03:02:00,
2013-01-25 22:07:00,15.6,13.1,30.99,South,171,0.0,0.0,90,0.00,CLR,CLR,0.00,WeatherDisplay:10.37,2013-01-26 03:07:00,
2013-01-25 22:12:00,15.7,13.5,30.99,South,171,0.0,0.0,91,0.00,CLR,CLR,0.00,WeatherDisplay:10.37,2013-01-26 03:12:00,
2013-01-25 22:17:00,15.7,13.3,30.99,South,171,0.0,2.0,90,0.00,CLR,CLR,0.00,WeatherDisplay:10.37,2013-01-26 03:17:00,
2013-01-25 22:22:00,15.8,13.6,30.99,South,171,0.0,4.0,91,0.00,CLR,CLR,0.00,WeatherDisplay:10.37,2013-01-26 03:22:00,
2013-01-25 22:27:00,15.9,13.7,30.99,South,171,0.0,2.0,91,0.00,CLR,CLR,0.00,WeatherDisplay:10.37,2013-01-26 03:27:00,
2013-01-25 22:32:00,15.9,13.7,31.00,South,171,0.0,2.0,91,0.00,CLR,CLR,0.00,WeatherDisplay:10.37,2013-01-26 03:32:00,
2013-01-25 22:37:00,15.9,13.7,31.00,South,171,1.0,4.0,91,0.00,CLR,CLR,0.00,WeatherDisplay:10.37,2013-01-26 03:37:00,
2013-01-25 22:42:00,16.1,13.9,31.00,South,171,1.0,5.0,91,0.00,CLR,CLR,0.00,WeatherDisplay:10.37,2013-01-26 03:42:00,
2013-01-25 22:47:00,16.1,13.7,30.99,South,171,0.0,2.0,90,0.00,CLR,CLR,0.00,WeatherDisplay:10.37,2013-01-26 03:47:00,
2013-01-25 22:52:00,16.2,13.8,30.99,South,171,0.0,2.0,90,0.00,CLR,CLR,0.00,WeatherDisplay:10.37,2013-01-26 03:52:00,
2013-01-25 22:57:00,16.3,13.9,30.99,South,171,0.0,2.0,90,0.00,CLR,CLR,0.00,WeatherDisplay:10.37,2013-01-26 03:57:00,
2013-01-25 23:02:00,16.3,13.9,31.00,South,171,0.0,2.0,90,0.00,CLR,CLR,0.00,WeatherDisplay:10.37,2013-01-26 04:02:00,
2013-01-25 23:07:00,16.4,14.0,31.00,South,171,0.0,0.0,90,0.00,CLR,CLR,0.00,WeatherDisplay:10.37,2013-01-26 04:07:00,
2013-01-25 23:12:00,16.4,14.0,31.00,South,171,0.0,2.0,90,0.00,CLR,CLR,0.00,WeatherDisplay:10.37,2013-01-26 04:12:00,
2013-01-25 23:17:00,16.4,14.0,31.00,South,171,0.0,0.0,90,0.00,CLR,CLR,0.00,WeatherDisplay:10.37,2013-01-26 04:17:00,
2013-01-25 23:22:00,16.4,14.0,31.00,South,171,0.0,0.0,90,0.00,CLR,CLR,0.00,WeatherDisplay:10.37,2013-01-26 04:22:00,
2013-01-25 23:27:00,16.4,14.0,31.00,South,171,0.0,1.0,90,0.00,CLR,CLR,0.00,WeatherDisplay:10.37,2013-01-26 04:27:00,
2013-01-25 23:32:00,16.4,14.2,31.00,South,171,0.0,0.0,91,0.00,CLR,CLR,0.00,WeatherDisplay:10.37,2013-01-26 04:32:00,
2013-01-25 23:37:00,16.4,14.2,31.00,South,171,0.0,0.0,91,0.00,CLR,CLR,0.00,WeatherDisplay:10.37,2013-01-26 04:37:00,
2013-01-25 23:42:00,16.4,14.2,31.00,South,171,0.0,0.0,91,0.00,CLR,CLR,0.00,WeatherDisplay:10.37,2013-01-26 04:42:00,
2013-01-25 23:47:00,16.4,14.2,31.00,South,171,0.0,0.0,91,0.00,CLR,CLR,0.00,WeatherDisplay:10.37,2013-01-26 04:47:00,
2013-01-25 23:52:00,16.3,14.2,31.00,South,171,0.0,0.0,91,0.00,CLR,CLR,0.00,WeatherDisplay:10.37,2013-01-26 04:52:00,
2013-01-25 23:57:00,16.3,14.1,31.00,South,171,0.0,0.0,91,0.00,CLR,CLR,0.00,WeatherDisplay:10.37,2013-01-26 04:57:00,